User: anonymous   Login
Location: Dampvalley
(47.9094°N, 6.1967°E)
Time: 12:59:31
(UTC+00:00)
Language:

AO-109 - Orbit

View from above orbital plane
View from above orbital plane
View from above satellite
View from above satellite

Ground track
Ground track

The orbit data is extracted from the following two-line orbital elements,

1 47311U 21002C   21339.42381453  .00002487  00000-0  11660-3 0  9997
2 47311  60.6877  10.8251 0035281 133.5989 226.8036 15.22515003 48896
Epoch (UTC): 05 December 2021 10:10:17
Eccentricity: 0.0035281
inclination: 60.6877°
perigee height: 474 km
apogee height: 522 km
right ascension of ascending node: 10.8251°
argument of perigee: 133.5989°
revolutions per day: 15.22515003
mean anomaly at epoch: 226.8036°
orbit number at epoch: 4889

The dashed part of the orbit path shows where the satellite is in the earth's shadow,  

DLR